Location: Croagnes
(43.9363°N, 5.3265°E)
Time: 03:29:20
(UTC+00:00)

COSMOS 2455 - Pass Details

Date: 06 June 2020
Orbit: 899 x 911 km, 67.1° (Epoch: 09 July)

Event Time Altitude Azimuth Distance (km) Brightness Sun altitude
Exits shadow 21:23:34 12° 196° (SSW) 2,452 4.7 -16.6°
Maximum altitude 21:29:08 65° 116° (ESE) 989 2.8 -17.1°
Drops below altitude 10° 21:35:06 10° 36° (NE) 2,598 5.5 -17.6°
Sets 21:37:38 0° 34° (NE) 3,545 6.3 -17.9°
